TimePST,TemperatureF,Dew PointF,Humidity,Sea Level PressureIn,VisibilityMPH,Wind Direction,Wind SpeedMPH,Gust SpeedMPH,PrecipitationIn,Events,Conditions,WindDirDegrees,DateUTC
12:53 AM,30.0,28.9,96,30.35,3.0,Calm,Calm,-,N/A,,Clear,0,2013-03-02 08:53:00
1:15 AM,26.6,26.6,100,30.33,7.0,Calm,Calm,-,N/A,,Scattered Clouds,0,2013-03-02 09:15:00
1:53 AM,30.9,30.0,96,30.33,8.0,NW,3.5,-,N/A,,Clear,320,2013-03-02 09:53:00
2:53 AM,28.9,28.0,96,30.30,2.5,Calm,Calm,-,N/A,,Clear,0,2013-03-02 10:53:00
3:08 AM,28.4,28.4,100,30.28,9.0,NE,3.5,-,N/A,,Clear,40,2013-03-02 11:08:00
4:45 AM,28.4,28.4,100,30.27,10.0,NNW,4.6,-,N/A,,Scattered Clouds,340,2013-03-02 12:45:00
4:53 AM,30.0,28.9,96,30.29,7.0,NNW,3.5,-,N/A,,Scattered Clouds,340,2013-03-02 12:53:00
5:53 AM,28.9,28.0,96,30.30,1.2,West,3.5,-,N/A,,Scattered Clouds,270,2013-03-02 13:53:00
5:55 AM,28.4,28.4,100,30.27,0.8,West,3.5,-,N/A,,Mist,280,2013-03-02 13:55:00
6:01 AM,28.4,28.4,100,30.27,7.0,NW,3.5,-,N/A,Fog,Patches of Fog,320,2013-03-02 14:01:00
6:53 AM,28.0,28.0,100,30.30,7.0,Calm,Calm,-,N/A,Fog,Patches of Fog,0,2013-03-02 14:53:00
7:53 AM,32.0,30.0,92,30.29,10.0,Calm,Calm,-,N/A,,Overcast,0,2013-03-02 15:53:00
8:53 AM,33.1,30.9,92,30.30,10.0,Calm,Calm,-,N/A,Fog,Patches of Fog,0,2013-03-02 16:53:00
9:53 AM,37.0,35.1,93,30.27,10.0,Calm,Calm,-,N/A,,Overcast,0,2013-03-02 17:53:00
10:53 AM,43.0,37.0,80,30.25,10.0,Calm,Calm,-,N/A,,Overcast,0,2013-03-02 18:53:00
11:53 AM,48.0,36.0,63,30.23,10.0,Calm,Calm,-,N/A,,Overcast,0,2013-03-02 19:53:00
12:53 PM,51.1,37.0,59,30.19,10.0,Calm,Calm,-,N/A,,Overcast,0,2013-03-02 20:53:00
1:53 PM,53.1,36.0,52,30.16,10.0,Calm,Calm,-,N/A,,Overcast,0,2013-03-02 21:53:00
2:53 PM,55.9,32.0,40,30.13,10.0,WSW,9.2,-,N/A,,Overcast,250,2013-03-02 22:53:00
3:53 PM,55.0,33.1,43,30.13,10.0,West,11.5,-,N/A,,Overcast,280,2013-03-02 23:53:00
4:53 PM,50.0,35.1,57,30.13,10.0,NNW,6.9,-,N/A,,Overcast,330,2013-03-03 00:53:00
5:53 PM,46.9,32.0,56,30.14,10.0,NNW,6.9,-,N/A,,Overcast,340,2013-03-03 01:53:00
6:53 PM,45.0,32.0,60,30.15,10.0,Calm,Calm,-,N/A,,Overcast,0,2013-03-03 02:53:00
7:53 PM,45.0,27.0,49,30.14,10.0,WNW,5.8,-,N/A,,Overcast,290,2013-03-03 03:53:00
8:53 PM,44.1,28.0,53,30.14,10.0,NW,4.6,-,N/A,,Overcast,310,2013-03-03 04:53:00
9:53 PM,42.1,32.0,67,30.14,10.0,Calm,Calm,-,N/A,,Overcast,0,2013-03-03 05:53:00
10:53 PM,42.1,34.0,73,30.12,10.0,North,3.5,-,N/A,,Overcast,350,2013-03-03 06:53:00
11:43 PM,39.2,37.4,93,30.12,6.0,North,4.6,-,0.01,Rain,Light Rain,360,2013-03-03 07:43:00
11:53 PM,39.0,37.0,93,30.11,7.0,NW,3.5,-,0.02,Rain,Light Rain,320,2013-03-03 07:53:00